FW4540 Weather Reports


Display with metric or nautical units.
time (UTC)temp
F
wind
direction
speed
MPH
gust
MPH
rain 1hr
in
rain 24hr
in
rain mn
in
humidity
%
barometer
mb
20260508142013 72 270 2.0 7.0 0.00 0.00 0.00 52 12.9
20260508140014 71 67 3.0 7.0 0.00 0.00 0.00 56 13.2
20260508135013 71 22 1.0 3.0 0.00 0.00 0.00 60 13.3
20260508134013 71 225 0.0 2.0 0.00 0.00 0.00 63 13.4
20260508133013 70 90 1.0 2.0 0.00 0.00 0.00 54 13.4
20260508132013 70 270 2.0 5.0 0.00 0.00 0.00 61 13.5
20260508131013 70 22 1.0 4.0 0.00 0.00 0.00 57 13.6
20260508130013 71 45 1.0 3.0 0.00 0.00 0.00 57 13.7
20260508125013 69 67 1.0 4.0 0.00 0.00 0.00 62 13.7
20260508124013 70 360 2.0 5.0 0.00 0.00 0.00 60 13.8
20260508122013 69 360 1.0 6.0 0.00 0.00 0.00 71 13.9
20260508121013 69 67 2.0 7.0 0.00 0.00 0.00 67 14.0
20260508120013 67 45 2.0 5.0 0.00 0.00 0.00 65 14.0
20260508115013 68 45 1.0 4.0 0.00 0.00 0.00 68 14.2
20260508114013 69 270 1.0 5.0 0.00 0.00 0.00 74 14.2
20260508113013 68 45 2.0 9.0 0.00 0.00 0.00 70 14.2
20260508112013 67 22 2.0 4.0 0.00 0.00 0.00 66 14.3
20260508111013 67 67 1.0 4.0 0.00 0.00 0.00 75 14.4
20260508110013 65 67 2.0 4.0 0.00 0.00 0.00 72 14.6
20260508104012 65 202 0.0 3.0 0.00 0.00 0.00 75 14.8
20260508103013 64 67 2.0 6.0 0.00 0.00 0.00 77 14.9
20260508102013 64 45 2.0 5.0 0.00 0.00 0.00 73 14.9
20260508101013 65 22 0.0 3.0 0.00 0.00 0.00 75 14.9
20260508095013 63 67 3.0 5.0 0.00 0.00 0.00 78 15.1
20260508094012 62 112 1.0 6.0 0.00 0.00 0.00 78 15.2
20260508093013 62 67 3.0 5.0 0.00 0.00 0.00 79 15.1
20260508092013 61 67 3.0 8.0 0.00 0.00 0.00 80 15.2
20260508091013 61 67 3.0 6.0 0.00 0.00 0.00 82 15.1
20260508090013 62 22 1.0 4.0 0.00 0.00 0.00 81 15.1
20260508085013 60 67 0.0 3.0 0.00 0.00 0.00 80 15.2
20260508084013 59 67 2.0 4.0 0.00 0.00 0.00 83 15.2
20260508083012 59 45 1.0 4.0 0.00 0.00 0.00 83 15.3
20260508081013 57 45 1.0 4.0 0.00 0.00 0.00 88 15.3
20260508080013 56 45 0.0 2.0 0.00 0.00 0.00 87 15.3
20260508074013 55 45 1.0 5.0 0.00 0.00 0.00 89 15.2
20260508073012 54 45 0.0 4.0 0.00 0.00 0.00 90 15.2
20260508072012 54 337 0.0 3.0 0.00 0.00 0.00 90 15.1
20260508071012 54 270 0.0 1.0 0.00 0.00 0.00 91 15.1
20260508070012 53 270 0.0 2.0 0.00 0.00 0.00 94 15.1
20260508065012 52 292 0.0 1.0 0.00 0.00 0.00 93 15.0
20260508064013 52 270 0.0 2.0 0.00 0.00 0.00 95 15.0
20260508062013 51 0 0.0 0.0 0.00 0.00 0.00 96 14.9
20260508061012 50 0 0.0 0.0 0.00 0.00 0.00 97 14.8
20260508055012 49 0 0.0 0.0 0.00 0.00 0.00 99 14.8
20260508054012 48 0 0.0 0.0 0.00 0.00 0.00 99 14.7
20260508053013 47 0 0.0 0.0 0.00 0.00 0.00 99 14.7
20260508052012 47 0 0.0 0.0 0.00 0.00 0.00 99 14.7
20260508051012 46 0 0.0 0.0 0.00 0.00 0.00 99 14.8
20260508050012 46 0 0.0 0.0 0.00 0.00 0.00 99 14.7
20260508045013 45 0 0.0 0.0 0.00 0.00 0.00 99 14.6
20260508044012 45 0 0.0 0.0 0.00 0.00 0.00 99 14.6
20260508043012 44 0 0.0 0.0 0.00 0.00 0.00 99 14.7
20260508042012 44 0 0.0 0.0 0.00 0.00 0.00 99 14.6
20260508040012 44 0 0.0 0.0 0.00 0.00 0.00 99 14.4
20260508035012 44 0 0.0 0.0 0.00 0.00 0.00 98 14.4
20260508034012 44 0 0.0 0.0 0.00 0.00 0.00 98 14.5
20260508033012 44 0 0.0 0.0 0.00 0.00 0.00 98 14.5
20260508032012 45 0 0.0 0.0 0.00 0.00 0.00 98 14.5
20260508031013 45 0 0.0 0.0 0.00 0.00 0.00 98 14.6
20260508030012 46 0 0.0 0.0 0.00 0.00 0.00 98 14.5
20260508025012 46 0 0.0 0.0 0.00 0.00 0.00 98 14.4
20260508022012 47 0 0.0 0.0 0.00 0.00 0.00 98 14.4
20260508021012 47 0 0.0 0.0 0.00 0.00 0.00 98 14.4
20260508020012 47 0 0.0 0.0 0.00 0.00 0.00 97 14.4
20260508013012 47 360 0.0 1.0 0.00 0.00 0.00 98 14.3
20260508012012 47 337 0.0 1.0 0.00 0.00 0.00 98 14.2
20260508011012 47 0 0.0 0.0 0.00 0.00 0.00 98 14.2
20260508010012 47 0 0.0 0.0 0.00 0.00 0.00 97 14.2
20260508005012 47 0 0.0 0.0 0.00 0.00 0.00 97 14.3
20260508004012 47 0 0.0 0.0 0.00 0.00 0.00 97 14.3
20260508003012 47 0 0.0 0.0 0.00 0.00 0.00 96 14.3
20260508000012 48 0 0.0 0.0 0.00 0.00 0.00 96 14.4
20260507235012 48 0 0.0 0.0 0.00 0.00 0.00 95 14.3
20260507234012 49 0 0.0 0.0 0.00 0.00 0.00 95 14.4
20260507233012 49 0 0.0 0.0 0.00 0.00 0.00 94 14.5
20260507232012 49 0 0.0 0.0 0.00 0.00 0.00 94 14.5
20260507230013 49 0 0.0 0.0 0.00 0.00 0.00 93 14.5
20260507225012 50 0 0.0 0.0 0.00 0.00 0.00 93 14.5
20260507224012 50 0 0.0 0.0 0.00 0.00 0.00 93 14.5
20260507223012 50 0 0.0 0.0 0.00 0.00 0.00 92 14.5
20260507222012 50 0 0.0 0.0 0.00 0.00 0.00 92 14.5
20260507221012 51 0 0.0 0.0 0.00 0.00 0.00 90 14.5
20260507220012 51 0 0.0 0.0 0.00 0.01 0.01 89 14.5
20260507215012 52 0 0.0 0.0 0.00 0.01 0.01 88 14.5
20260507213012 52 360 0.0 3.0 0.00 0.01 0.01 87 14.3
20260507212012 53 360 0.0 1.0 0.00 0.01 0.01 86 14.3
20260507211012 53 22 0.0 2.0 0.00 0.01 0.01 86 14.2
20260507210012 53 0 0.0 0.0 0.00 0.01 0.01 85 14.3
20260507205012 53 0 0.0 0.0 0.00 0.01 0.01 85 14.3
20260507204011 53 0 0.0 0.0 0.00 0.01 0.01 84 14.3
20260507203012 53 0 0.0 0.0 0.00 0.01 0.01 83 14.3
20260507202012 54 0 0.0 0.0 0.00 0.01 0.01 83 14.2
20260507201012 54 0 0.0 0.0 0.00 0.01 0.01 81 14.1
20260507200012 54 0 0.0 0.0 0.00 0.01 0.01 81 14.0
20260507195012 55 0 0.0 0.0 0.00 0.01 0.01 80 13.9
20260507194011 55 0 0.0 0.0 0.00 0.01 0.01 79 13.8
20260507191012 57 22 0.0 2.0 0.00 0.01 0.01 75 13.6
20260507190012 58 0 0.0 0.0 0.00 0.01 0.01 74 13.6
20260507184011 59 22 0.0 3.0 0.00 0.01 0.01 73 13.5
20260507183011 59 0 0.0 0.0 0.00 0.01 0.01 72 13.4
20260507182012 60 360 1.0 3.0 0.00 0.01 0.01 72 13.3
20260507181011 60 22 0.0 2.0 0.00 0.01 0.01 71 13.4
20260507180012 61 360 0.0 4.0 0.00 0.01 0.01 69 13.3
20260507175011 62 45 2.0 6.0 0.00 0.01 0.01 65 13.2
20260507174012 62 45 2.0 5.0 0.00 0.01 0.01 65 13.2
20260507172011 63 45 2.0 6.0 0.00 0.01 0.01 65 13.2
20260507170012 64 45 2.0 5.0 0.00 0.01 0.01 62 13.2
20260507165012 64 22 2.0 5.0 0.00 0.01 0.01 62 13.4
20260507163011 64 360 1.0 4.0 0.00 0.01 0.01 61 13.5
20260507162011 64 45 3.0 6.0 0.00 0.01 0.01 60 13.5
20260507154011 64 45 1.0 3.0 0.00 0.01 0.01 59 13.6
20260507153011 64 22 0.0 2.0 0.00 0.01 0.01 59 13.7
20260507152012 64 67 2.0 4.0 0.00 0.01 0.01 58 13.7
20260507151011 65 270 1.0 2.0 0.00 0.01 0.01 63 13.7
20260507150012 66 270 1.0 3.0 0.00 0.01 0.01 64 13.7
20260507145011 65 315 0.0 2.0 0.00 0.01 0.01 61 13.8
20260507144011 63 22 1.0 2.0 0.00 0.01 0.01 56 14.0
20260507143011 63 90 2.0 4.0 0.00 0.01 0.01 61 14.1